Regional Weather Roundup
Issued by NWS

Home | Current Version | Previous Version | Graphics & Text | Print | Product List | Glossary On
Versions: 1 2 3 4 5 6 7 8 9 10 11 12 13 14 15 16 17 18 19 20 21 22 23 24 25 26 27 28 29 30 31 32 33 34 35 36 37 38 39 40 41 42 43 44 45 46 47 48 49 50
456
ASUS43 KDMX 200606
RWRIA

WEATHER ROUNDUP FOR IOWA
NATIONAL WEATHER SERVICE DES MOINES IA
1200 AM CST MON NOV 20 2017

NOTE: "FAIR" INDICATES FEW OR NO CLOUDS BELOW 12,000 FEET WITH NO
SIGNIFICANT WEATHER AND/OR OBSTRUCTIONS TO VISIBILITY.

* - THESE STATIONS ARE NOT NWS STATIONS...THUS NOT UNDER NWS
QUALITY CONTROL.  THEY ALSO DO NOT REPORT WEATHER SUCH
AS PRECIPITATION OR FOG.

IAZ001>003-012>014-020>022-031>034-043>046-200700-
   NORTHWEST IOWA

CITY           SKY/WX    TMP DP  RH WIND       PRES   REMARKS
CARROLL *      CLOUDY    39  27  60 SW16      29.86S WCI  30
CHEROKEE *     CLOUDY    35  26  69 CALM      29.82S
DENISON *      CLOUDY    37  27  65 S9        29.88S WCI  31
LE MARS *      CLOUDY    34  27  75 S7        29.81F WCI  28
ORANGE CITY *  PTCLDY    37  28  70 S9        29.79F WCI  31
SHELDON *      CLOUDY    36  25  64 S10       29.78F WCI  28
SIOUX CITY     CLOUDY    30  25  81 E7        29.82F WCI  23
6HR MIN TEMP:  29; 6HR MAX TEMP:  44;

SPENCER        PTCLDY    35  26  69 SW6       29.81F WCI  30
6HR MIN TEMP:  31; 6HR MAX TEMP:  39;

STORM LAKE *   CLOUDY    37  25  60 SW15      29.82F WCI  28
$$

IAZ055>058-069>071-079>083-090>094-200700-
   SOUTHWEST IOWA

CITY           SKY/WX    TMP DP  RH WIND       PRES   REMARKS
ATLANTIC *     CLOUDY    34  28  80 S9        29.90F WCI  26
AUDUBON *      CLOUDY    39  27  60 S10       29.89F WCI  32
CLARINDA *     CLOUDY    34  28  80 S8        29.96F WCI  27
COUNCIL BLFS * CLOUDY    43  25  49 S12       29.89F
CRESTON *      CLEAR     36  28  75 S14       29.94F WCI  27
HARLAN  *      CLOUDY    34  28  80 SW7       29.92F WCI  28
LAMONI         CLOUDY    34  28  79 S12       29.98F WCI  25
6HR MIN TEMP:  34; 6HR MAX TEMP:  40;

RED OAK *      CLOUDY    36  27  69 S6        29.92F WCI  31
SHENANDOAH *   CLOUDY    37  27  65 S9        29.94F WCI  31
$$

IAZ047>049-059>061-072>074-084-200700-
   CENTRAL IOWA

CITY           SKY/WX    TMP DP  RH WIND       PRES   REMARKS
AMES           CLOUDY    35  29  78 S8        29.90F WCI  29
6HR MIN TEMP:  34; 6HR MAX TEMP:  39;

ANKENY *       CLEAR     39  28  65 S9G15     29.93F WCI  33
BOONE *        CLOUDY    39  28  65 SW14      29.87F WCI  31
CHARITON *     CLOUDY    37  28  70 SW16      29.96F WCI  28
DES MOINES     CLEAR     39  27  62 S14       29.93F WCI  31
6HR MIN TEMP:  37; 6HR MAX TEMP:  41;

GRINNELL*      CLOUDY    35  28  76 S12       29.94F WCI  26
KNOXVILLE *    CLEAR     39  27  60 S15       29.93F WCI  31
MARSHALLTOWN   CLOUDY    37  28  70 S15       29.90F WCI  28
6HR MIN TEMP:  35; 6HR MAX TEMP:  38;

NEWTON *       CLOUDY    37  28  70 SW14      29.93F WCI  29
PELLA *        CLEAR     39  28  65 S8        29.96F WCI  33
PERRY *          N/A     33  29  85 S12       29.89F WCI  24
$$

IAZ004>006-015-016-023>025-035-036-200700-
   NORTH CENTRAL IOWA

CITY           SKY/WX    TMP DP  RH WIND       PRES   REMARKS
ALGONA *       CLOUDY    32  30  93 S12       29.82S WCI  23
CLARION *      CLOUDY    32  32 100 S9        29.85F WCI  24
ESTHERVILLE    CLOUDY    35  27  72 SW6       29.80S WCI  30
6HR MIN TEMP:  29; 6HR MAX TEMP:  37;

FORT DODGE *   CLOUDY    36  27  69 S13       29.84F WCI  27
MASON CITY     CLOUDY    36  27  69 S13       29.85F WCI  27
6HR MIN TEMP:  35; 6HR MAX TEMP:  37;

FOREST CITY *    N/A     32  30  93 SE5       29.84F WCI  27
WEBSTER CITY * CLOUDY    34  27  75 S9        29.84F WCI  26
IOWA FALLS *     N/A     35  29  79 S13       29.88F WCI  26
$$

IAZ007>011-017>019-026>030-037>042-050>054-066-200700-
   NORTHEAST IOWA

CITY           SKY/WX    TMP DP  RH WIND       PRES   REMARKS
CEDAR RAPIDS   CLOUDY    34  26  72 S10       29.94F WCI  26
6HR MIN TEMP:  30; 6HR MAX TEMP:  34;

CHARLES CITY * CLOUDY    34  28  80 S8        29.88S WCI  27
CLINTON *      CLOUDY    31  25  78 S7        30.01F WCI  24
DECORAH *      CLOUDY    34  27  75 S8G14     29.87F WCI  27
DUBUQUE        CLOUDY    29  24  82 S12       29.95F WCI  19
6HR MIN TEMP:  27; 6HR MAX TEMP:  30;

MONTICELLO *   CLOUDY    34  27  75 S7        29.95F WCI  28
OELWEIN *      CLOUDY    32  30  93 S10       29.91F WCI  24
WATERLOO       CLOUDY    36  26  67 S13       29.89F WCI  27
6HR MIN TEMP:  32; 6HR MAX TEMP:  36;

$$

IAZ064-065-067-068-078-200700-
   EAST CENTRAL IOWA

CITY           SKY/WX    TMP DP  RH WIND       PRES   REMARKS
DAVENPORT      CLOUDY    34  24  67 S12       30.02F WCI  25
6HR MIN TEMP:  31; 6HR MAX TEMP:  36;

IOWA CITY      CLOUDY    36  26  67 S8        29.99F WCI  30
6HR MIN TEMP:  30; 6HR MAX TEMP:  37;

MT. PLEASANT * CLOUDY    33  26  75 S10       30.02F WCI  25
MUSCATINE *    CLOUDY    36  27  69 S6        30.02F WCI  31
QUAD CITIES    CLOUDY    36  23  59 S10       30.01F WCI  28
6HR MIN TEMP:  31; 6HR MAX TEMP:  36;

$$

IAZ062-063-075>077-085>089-095>099-200700-
   SOUTHEAST IOWA

CITY           SKY/WX    TMP DP  RH WIND       PRES   REMARKS
BURLINGTON     CLOUDY    33  26  75 S9        30.04F WCI  25
6HR MIN TEMP:  31; 6HR MAX TEMP:  35;

FAIRFIELD *    CLOUDY    37  27  65 S10       29.98F WCI  30
FORT MADISON * MOCLDY    37  27  65 S12G18    30.05S WCI  30
KEOKUK *       PTCLDY    36  25  64 S13       30.05F WCI  27
OSKALOOSA *      N/A     36  28  75 SW14      29.96F WCI  27
OTTUMWA        CLOUDY    34  26  72 S10       29.97F WCI  26
6HR MIN TEMP:  33; 6HR MAX TEMP:  37;

WASHINGTON *   CLOUDY    34  28  80 S12       30.00F WCI  25
$$

ABBREVIATIONS USED IN REMARKS
   TC - TEMPERATURES IN CELSIUS
  WCI - WIND CHILL INDEX
   HX - HEAT INDEX
  VSB - VISIBILITY
$$





USA.gov is the U.S. government's official web portal to all federal, state and local government web resources and services.